Private Wetterstation Wechselburg
Wetterdaten: Donnerstag, 01.07.2010
Datum Zeit Temp. +2m Bodentemp. Temp.+5cm Temp. Wind Windchill X Diff Temp. Feuchte +2m Feuchte +5cm Sonnenschein Luftdruck Regen Wind Richtung Richtung Sonnenschein UV Taupunkt Windchill Windben
01.07.2010 00:00 20,5 C 21,9 C 20,0 C 18,8 C 15,3 C 0,0 C 70 % 72 % 0 % 1016,8 hPa 0,0 l/m 0,0 km/h (0 Bft) SW 225 0 min 0,0 UV-I 14,8 C 15,3 C 0,0 km/h (0 Bft)
01.07.2010 00:10 20,2 C 21,8 C 20,0 C 18,5 C 15,1 C 0,0 C 70 % 72 % 0 % 1016,8 hPa 0,0 l/m 0,0 km/h (0 Bft) SW 225 0 min 0,0 UV-I 14,5 C 15,1 C 0,0 km/h (0 Bft)
01.07.2010 00:15 20,3 C 21,8 C 20,0 C 18,6 C 15,1 C 0,0 C 70 % 72 % 0 % 1016,8 hPa 0,0 l/m 0,0 km/h (0 Bft) SW 225 0 min 0,0 UV-I 14,6 C 15,1 C 0,0 km/h (0 Bft)
01.07.2010 00:20 20,2 C 21,8 C 20,0 C 18,5 C 15,0 C 0,0 C 70 % 72 % 0 % 1016,8 hPa 0,0 l/m 0,0 km/h (0 Bft) SW 225 0 min 0,0 UV-I 14,5 C 15,0 C 0,0 km/h (0 Bft)
01.07.2010 00:25 20,1 C 21,9 C 20,0 C 18,4 C 15,0 C 0,0 C 71 % 72 % 0 % 1016,8 hPa 0,0 l/m 0,0 km/h (0 Bft) SW 225 0 min 0,0 UV-I 14,7 C 15,0 C 0,0 km/h (0 Bft)
01.07.2010 00:30 20,0 C 21,9 C 20,0 C 18,3 C 14,9 C 0,0 C 71 % 72 % 0 % 1016,8 hPa 0,0 l/m 0,0 km/h (0 Bft) SW 225 0 min 0,0 UV-I 14,6 C 14,9 C 0,0 km/h (0 Bft)
01.07.2010 00:35 19,9 C 21,9 C 20,0 C 18,2 C 14,7 C 0,0 C 71 % 72 % 0 % 1016,8 hPa 0,0 l/m 0,0 km/h (0 Bft) SW 225 0 min 0,0 UV-I 14,5 C 14,7 C 0,0 km/h (0 Bft)
01.07.2010 00:40 19,4 C 21,9 C 20,0 C 17,8 C 14,7 C 0,0 C 71 % 72 % 0 % 1016,7 hPa 0,0 l/m 0,0 km/h (0 Bft) SW 225 0 min 0,0 UV-I 14,0 C 14,7 C 0,0 km/h (0 Bft)
01.07.2010 00:45 19,3 C 22,0 C 20,0 C 17,8 C 14,7 C 0,0 C 72 % 72 % 0 % 1016,7 hPa 0,0 l/m 0,0 km/h (0 Bft) SW 225 0 min 0,0 UV-I 14,1 C 14,7 C 0,0 km/h (0 Bft)
01.07.2010 00:50 19,4 C 21,8 C 20,0 C 17,8 C 14,6 C 0,0 C 73 % 72 % 0 % 1016,7 hPa 0,0 l/m 0,0 km/h (0 Bft) SW 225 0 min 0,0 UV-I 14,4 C 14,6 C 0,0 km/h (0 Bft)
01.07.2010 00:55 19,5 C 21,8 C 20,0 C 17,9 C 14,6 C 0,0 C 73 % 72 % 0 % 1016,7 hPa 0,0 l/m 0,0 km/h (0 Bft) SW 225 0 min 0,0 UV-I 14,5 C 14,6 C 0,0 km/h (0 Bft)
01.07.2010 01:00 19,4 C 21,8 C 20,0 C 17,8 C 14,5 C 0,0 C 72 % 72 % 0 % 1016,8 hPa 0,0 l/m 0,0 km/h (0 Bft) SW 225 0 min 0,0 UV-I 14,2 C 14,5 C 0,0 km/h (0 Bft)
01.07.2010 01:06 19,2 C 21,8 C 20,0 C 17,6 C 14,4 C 0,0 C 72 % 72 % 0 % 1016,8 hPa 0,0 l/m 0,0 km/h (0 Bft) SW 225 0 min 0,0 UV-I 14,0 C 14,4 C 0,0 km/h (0 Bft)
01.07.2010 01:10 19,0 C 21,8 C 20,0 C 17,5 C 14,4 C 0,0 C 73 % 72 % 0 % 1016,8 hPa 0,0 l/m 0,0 km/h (0 Bft) SW 225 0 min 0,0 UV-I 14,0 C 14,4 C 0,0 km/h (0 Bft)
01.07.2010 01:15 19,0 C 21,8 C 20,0 C 17,4 C 14,3 C 0,0 C 73 % 72 % 0 % 1016,8 hPa 0,0 l/m 0,2 km/h (0 Bft) SW 225 0 min 0,0 UV-I 14,0 C 14,3 C 1,9 km/h (1 Bft)
01.07.2010 01:20 19,1 C 21,7 C 20,0 C 17,5 C 14,2 C 0,0 C 73 % 72 % 0 % 1016,8 hPa 0,0 l/m 0,2 km/h (0 Bft) SW 225 0 min 0,0 UV-I 14,1 C 14,2 C 0,0 km/h (0 Bft)
01.07.2010 01:25 18,8 C 21,8 C 20,0 C 17,2 C 14,1 C 0,0 C 73 % 72 % 0 % 1016,8 hPa 0,0 l/m 0,2 km/h (0 Bft) SW 225 0 min 0,0 UV-I 13,9 C 14,1 C 0,0 km/h (0 Bft)
01.07.2010 01:30 18,9 C 21,8 C 20,0 C 17,2 C 13,9 C 0,0 C 74 % 72 % 0 % 1016,8 hPa 0,0 l/m 0,0 km/h (0 Bft) SW 225 0 min 0,0 UV-I 14,2 C 13,9 C 0,0 km/h (0 Bft)
01.07.2010 01:35 18,7 C 21,8 C 20,0 C 17,1 C 13,9 C 0,0 C 75 % 72 % 0 % 1016,8 hPa 0,0 l/m 0,0 km/h (0 Bft) SW 225 0 min 0,0 UV-I 14,2 C 13,9 C 0,0 km/h (0 Bft)
01.07.2010 01:40 18,7 C 21,8 C 20,0 C 17,1 C 13,9 C 0,0 C 74 % 72 % 0 % 1016,9 hPa 0,0 l/m 0,0 km/h (0 Bft) SW 225 0 min 0,0 UV-I 14,0 C 13,9 C 0,0 km/h (0 Bft)
01.07.2010 01:45 18,5 C 21,8 C 20,0 C 17,0 C 13,9 C 0,0 C 75 % 72 % 0 % 1016,9 hPa 0,0 l/m 0,0 km/h (0 Bft) W 270 0 min 0,0 UV-I 14,0 C 13,9 C 0,0 km/h (0 Bft)
01.07.2010 01:50 18,6 C 21,7 C 20,0 C 17,0 C 13,9 C 0,0 C 75 % 72 % 0 % 1016,9 hPa 0,0 l/m 0,2 km/h (0 Bft) W-SW 247 0 min 0,0 UV-I 14,1 C 13,9 C 0,0 km/h (0 Bft)
01.07.2010 01:55 18,6 C 21,6 C 20,0 C 17,0 C 13,9 C 0,0 C 75 % 72 % 0 % 1016,9 hPa 0,0 l/m 0,2 km/h (0 Bft) W-SW 247 0 min 0,0 UV-I 14,1 C 13,9 C 0,0 km/h (0 Bft)
01.07.2010 02:00 18,5 C 21,6 C 20,0 C 17,0 C 13,9 C 0,0 C 75 % 72 % 0 % 1016,8 hPa 0,0 l/m 0,0 km/h (0 Bft) W-SW 247 0 min 0,0 UV-I 14,0 C 13,9 C 0,0 km/h (0 Bft)
01.07.2010 02:06 18,4 C 21,7 C 20,0 C 16,9 C 13,9 C 0,0 C 74 % 72 % 0 % 1016,8 hPa 0,0 l/m 0,0 km/h (0 Bft) W-SW 247 0 min 0,0 UV-I 13,7 C 13,9 C 0,0 km/h (0 Bft)
01.07.2010 02:10 18,3 C 21,7 C 20,0 C 16,8 C 13,9 C 0,0 C 75 % 72 % 0 % 1016,8 hPa 0,0 l/m 0,0 km/h (0 Bft) W-SW 247 0 min 0,0 UV-I 13,8 C 13,9 C 0,0 km/h (0 Bft)
01.07.2010 02:15 18,3 C 21,6 C 20,0 C 16,8 C 13,9 C 0,0 C 75 % 72 % 0 % 1016,8 hPa 0,0 l/m 0,0 km/h (0 Bft) W-SW 247 0 min 0,0 UV-I 13,8 C 13,9 C 0,0 km/h (0 Bft)
01.07.2010 02:20 18,5 C 21,6 C 20,0 C 17,0 C 13,9 C 0,0 C 75 % 72 % 0 % 1016,9 hPa 0,0 l/m 0,2 km/h (0 Bft) W-SW 247 0 min 0,0 UV-I 14,0 C 13,9 C 0,0 km/h (0 Bft)
01.07.2010 02:25 18,4 C 21,6 C 20,0 C 16,9 C 13,9 C 0,0 C 75 % 72 % 0 % 1016,9 hPa 0,0 l/m 0,2 km/h (0 Bft) W-SW 247 0 min 0,0 UV-I 13,9 C 13,9 C 0,0 km/h (0 Bft)
01.07.2010 02:30 18,1 C 21,7 C 20,0 C 16,7 C 13,8 C 0,0 C 75 % 72 % 0 % 1016,9 hPa 0,0 l/m 0,0 km/h (0 Bft) W-SW 247 0 min 0,0 UV-I 13,6 C 13,8 C 0,0 km/h (0 Bft)
01.07.2010 02:35 17,9 C 21,7 C 20,0 C 16,6 C 13,9 C 0,0 C 76 % 72 % 0 % 1016,9 hPa 0,0 l/m 0,0 km/h (0 Bft) W-SW 247 0 min 0,0 UV-I 13,6 C 13,9 C 0,0 km/h (0 Bft)
01.07.2010 02:40 17,9 C 21,6 C 20,0 C 16,5 C 13,8 C 0,0 C 76 % 72 % 0 % 1016,6 hPa 0,0 l/m 0,0 km/h (0 Bft) W-SW 247 0 min 0,0 UV-I 13,6 C 13,8 C 0,0 km/h (0 Bft)
01.07.2010 02:45 18,0 C 21,5 C 20,0 C 16,6 C 13,7 C 0,0 C 77 % 72 % 0 % 1016,6 hPa 0,0 l/m 0,0 km/h (0 Bft) SW 225 0 min 0,0 UV-I 13,9 C 13,7 C 0,0 km/h (0 Bft)
01.07.2010 02:50 18,1 C 21,5 C 20,0 C 16,6 C 13,7 C 0,0 C 76 % 72 % 0 % 1016,6 hPa 0,0 l/m 0,2 km/h (0 Bft) SW 225 0 min 0,0 UV-I 13,8 C 13,7 C 0,0 km/h (0 Bft)
01.07.2010 02:55 18,0 C 21,5 C 20,0 C 16,5 C 13,6 C 0,0 C 76 % 72 % 0 % 1016,6 hPa 0,0 l/m 0,3 km/h (0 Bft) SW 225 0 min 0,0 UV-I 13,7 C 13,6 C 0,0 km/h (0 Bft)
01.07.2010 03:00 17,9 C 21,5 C 20,0 C 16,4 C 13,5 C 0,0 C 76 % 72 % 0 % 1016,9 hPa 0,0 l/m 0,0 km/h (0 Bft) SW 225 0 min 0,0 UV-I 13,6 C 13,5 C 0,0 km/h (0 Bft)
01.07.2010 03:06 17,8 C 21,5 C 20,0 C 16,4 C 13,5 C 0,0 C 76 % 72 % 0 % 1016,9 hPa 0,0 l/m 0,0 km/h (0 Bft) SW 225 0 min 0,0 UV-I 13,5 C 13,5 C 0,0 km/h (0 Bft)
01.07.2010 03:10 17,6 C 21,5 C 20,0 C 16,2 C 13,5 C 0,0 C 76 % 72 % 0 % 1016,9 hPa 0,0 l/m 0,0 km/h (0 Bft) SW 225 0 min 0,0 UV-I 13,3 C 13,5 C 0,0 km/h (0 Bft)
01.07.2010 03:15 17,6 C 21,5 C 20,0 C 16,2 C 13,5 C 0,0 C 76 % 72 % 0 % 1016,9 hPa 0,0 l/m 0,0 km/h (0 Bft) W-SW 247 0 min 0,0 UV-I 13,3 C 13,5 C 0,0 km/h (0 Bft)
01.07.2010 03:20 17,5 C 21,5 C 20,0 C 16,2 C 13,6 C 0,0 C 77 % 72 % 0 % 1016,8 hPa 0,0 l/m 0,0 km/h (0 Bft) W-SW 247 0 min 0,0 UV-I 13,4 C 13,6 C 0,0 km/h (0 Bft)
01.07.2010 03:25 17,5 C 21,5 C 20,0 C 16,2 C 13,6 C 0,0 C 77 % 72 % 0 % 1016,8 hPa 0,0 l/m 0,0 km/h (0 Bft) W-SW 247 0 min 0,0 UV-I 13,4 C 13,6 C 0,0 km/h (0 Bft)
01.07.2010 03:30 17,5 C 21,5 C 20,0 C 16,2 C 13,5 C 0,0 C 77 % 72 % 0 % 1016,8 hPa 0,0 l/m 0,0 km/h (0 Bft) W-SW 247 0 min 0,0 UV-I 13,4 C 13,5 C 0,0 km/h (0 Bft)
01.07.2010 03:35 17,5 C 21,4 C 20,0 C 16,2 C 13,5 C 0,0 C 77 % 72 % 0 % 1016,8 hPa 0,0 l/m 0,3 km/h (0 Bft) W-SW 247 0 min 0,0 UV-I 13,4 C 13,5 C 1,8 km/h (1 Bft)
01.07.2010 03:40 17,5 C 21,4 C 20,0 C 16,1 C 13,4 C 0,0 C 76 % 72 % 0 % 1016,5 hPa 0,0 l/m 0,3 km/h (0 Bft) W-SW 247 0 min 0,0 UV-I 13,2 C 13,4 C 0,0 km/h (0 Bft)
01.07.2010 03:45 17,2 C 21,4 C 20,0 C 15,9 C 13,4 C 0,0 C 77 % 72 % 0 % 1016,5 hPa 0,0 l/m 0,2 km/h (0 Bft) W-SW 247 0 min 0,0 UV-I 13,1 C 13,4 C 0,0 km/h (0 Bft)
01.07.2010 03:50 17,3 C 21,4 C 20,0 C 16,0 C 13,3 C 0,0 C 78 % 72 % 0 % 1016,5 hPa 0,0 l/m 0,3 km/h (0 Bft) W-SW 247 0 min 0,0 UV-I 13,4 C 13,3 C 1,8 km/h (1 Bft)
01.07.2010 03:55 17,3 C 21,4 C 20,0 C 15,9 C 13,2 C 0,0 C 77 % 72 % 0 % 1016,5 hPa 0,0 l/m 0,3 km/h (0 Bft) W-SW 247 0 min 0,0 UV-I 13,2 C 13,2 C 0,0 km/h (0 Bft)
01.07.2010 04:00 17,0 C 21,5 C 20,0 C 15,7 C 13,1 C 0,0 C 78 % 72 % 0 % 1016,6 hPa 0,0 l/m 0,0 km/h (0 Bft) W-SW 247 0 min 0,0 UV-I 13,1 C 13,1 C 0,0 km/h (0 Bft)
01.07.2010 04:06 16,9 C 21,5 C 20,0 C 15,6 C 13,0 C 0,0 C 78 % 72 % 0 % 1016,6 hPa 0,0 l/m 0,0 km/h (0 Bft) W-SW 247 0 min 0,0 UV-I 13,0 C 13,0 C 0,0 km/h (0 Bft)
01.07.2010 04:10 16,8 C 21,5 C 20,0 C 15,5 C 12,9 C 0,0 C 78 % 72 % 0 % 1016,6 hPa 0,0 l/m 0,0 km/h (0 Bft) W-SW 247 0 min 0,0 UV-I 12,9 C 12,9 C 0,0 km/h (0 Bft)
01.07.2010 04:15 16,9 C 21,5 C 20,0 C 15,6 C 13,0 C 0,0 C 79 % 72 % 0 % 1016,6 hPa 0,0 l/m 0,2 km/h (0 Bft) W-SW 247 0 min 0,0 UV-I 13,2 C 13,0 C 0,0 km/h (0 Bft)
01.07.2010 04:20 16,9 C 21,5 C 20,0 C 15,6 C 13,0 C 0,0 C 78 % 72 % 0 % 1016,3 hPa 0,0 l/m 0,2 km/h (0 Bft) S 180 0 min 0,0 UV-I 13,0 C 13,0 C 2,1 km/h (1 Bft)
01.07.2010 04:25 16,9 C 21,4 C 20,0 C 15,6 C 13,1 C 0,0 C 79 % 72 % 0 % 1016,3 hPa 0,0 l/m 0,2 km/h (0 Bft) S 180 0 min 0,0 UV-I 13,2 C 13,1 C 0,0 km/h (0 Bft)
01.07.2010 04:30 16,9 C 21,4 C 20,0 C 15,6 C 13,1 C 0,0 C 78 % 72 % 0 % 1016,3 hPa 0,0 l/m 0,2 km/h (0 Bft) S 180 0 min 0,0 UV-I 13,0 C 13,1 C 0,0 km/h (0 Bft)
01.07.2010 04:35 16,8 C 21,4 C 20,0 C 15,5 C 13,0 C 0,0 C 78 % 72 % 0 % 1016,3 hPa 0,0 l/m 0,0 km/h (0 Bft) S 180 0 min 0,0 UV-I 12,9 C 13,0 C 0,0 km/h (0 Bft)
01.07.2010 04:40 16,8 C 21,4 C 20,0 C 15,5 C 12,9 C 0,0 C 78 % 72 % 0 % 1016,2 hPa 0,0 l/m 0,0 km/h (0 Bft) S 180 0 min 0,0 UV-I 12,9 C 12,9 C 0,0 km/h (0 Bft)
01.07.2010 04:45 16,7 C 21,3 C 20,0 C 15,4 C 12,9 C 0,0 C 79 % 72 % 0 % 1016,2 hPa 0,0 l/m 0,0 km/h (0 Bft) W-NW 292 0 min 0,0 UV-I 13,0 C 12,9 C 0,0 km/h (0 Bft)
01.07.2010 04:50 16,8 C 21,3 C 20,0 C 15,5 C 12,9 C 0,0 C 79 % 72 % 0 % 1016,2 hPa 0,0 l/m 0,2 km/h (0 Bft) W-SW 247 0 min 0,0 UV-I 13,1 C 12,9 C 0,0 km/h (0 Bft)
01.07.2010 04:55 16,8 C 21,3 C 20,0 C 15,5 C 12,9 C 0,0 C 78 % 72 % 0 % 1016,2 hPa 0,0 l/m 0,2 km/h (0 Bft) W-SW 247 0 min 0,0 UV-I 12,9 C 12,9 C 0,0 km/h (0 Bft)
01.07.2010 05:00 16,8 C 21,3 C 20,0 C 15,5 C 12,9 C 0,0 C 79 % 72 % 0 % 1016,3 hPa 0,0 l/m 0,0 km/h (0 Bft) W-SW 247 0 min 0,0 UV-I 13,1 C 12,9 C 0,0 km/h (0 Bft)
01.07.2010 05:06 16,7 C 21,3 C 20,0 C 15,4 C 12,8 C 0,0 C 79 % 72 % 0 % 1016,3 hPa 0,0 l/m 0,0 km/h (0 Bft) W-SW 247 0 min 0,0 UV-I 13,0 C 12,8 C 0,0 km/h (0 Bft)
01.07.2010 05:10 16,6 C 21,2 C 20,0 C 15,3 C 12,8 C 0,0 C 79 % 72 % 0 % 1016,3 hPa 0,0 l/m 0,0 km/h (0 Bft) W-SW 247 0 min 0,0 UV-I 12,9 C 12,8 C 0,0 km/h (0 Bft)
01.07.2010 05:15 16,7 C 21,2 C 14,8 C 15,4 C 12,8 C 0,0 C 78 % 86 % 0 % 1016,3 hPa 0,0 l/m 0,0 km/h (0 Bft) W-SW 247 0 min 0,0 UV-I 12,8 C 12,8 C 0,0 km/h (0 Bft)
01.07.2010 05:20 16,7 C 21,2 C 14,6 C 15,4 C 12,8 C 0,0 C 79 % 87 % 0 % 1016,2 hPa 0,0 l/m 0,0 km/h (0 Bft) W-SW 247 0 min 0,0 UV-I 13,0 C 12,8 C 0,0 km/h (0 Bft)
01.07.2010 05:25 16,4 C 21,3 C 14,6 C 15,2 C 12,9 C 0,0 C 79 % 87 % 0 % 1016,2 hPa 0,0 l/m 0,0 km/h (0 Bft) W-SW 247 0 min 0,0 UV-I 12,7 C 12,9 C 0,0 km/h (0 Bft)
01.07.2010 05:30 16,3 C 21,2 C 14,6 C 15,2 C 13,0 C 0,0 C 80 % 87 % 0 % 1016,2 hPa 0,0 l/m 0,0 km/h (0 Bft) W-SW 247 0 min 0,0 UV-I 12,8 C 13,0 C 0,0 km/h (0 Bft)
01.07.2010 05:35 16,4 C 21,2 C 14,6 C 15,3 C 13,1 C 0,0 C 80 % 87 % 0 % 1016,2 hPa 0,0 l/m 0,0 km/h (0 Bft) W-SW 247 0 min 0,0 UV-I 12,9 C 13,1 C 0,0 km/h (0 Bft)
01.07.2010 05:40 16,5 C 21,2 C 14,6 C 15,4 C 13,1 C 0,0 C 80 % 87 % 0 % 1016,4 hPa 0,0 l/m 0,0 km/h (0 Bft) W-SW 247 0 min 0,0 UV-I 13,0 C 13,1 C 0,0 km/h (0 Bft)
01.07.2010 05:45 16,4 C 21,2 C 14,6 C 15,3 C 13,2 C 0,0 C 80 % 87 % 0 % 1016,4 hPa 0,0 l/m 0,0 km/h (0 Bft) W-SW 247 0 min 0,0 UV-I 12,9 C 13,2 C 0,0 km/h (0 Bft)
01.07.2010 05:50 16,3 C 21,2 C 14,6 C 15,3 C 13,3 C 0,0 C 81 % 87 % 0 % 1016,4 hPa 0,0 l/m 0,0 km/h (0 Bft) W-SW 247 0 min 0,0 UV-I 13,0 C 13,3 C 0,0 km/h (0 Bft)
01.07.2010 05:55 16,4 C 21,1 C 14,7 C 15,4 C 13,3 C 0,0 C 80 % 87 % 0 % 1016,4 hPa 0,0 l/m 0,0 km/h (0 Bft) W-SW 247 0 min 0,0 UV-I 12,9 C 13,3 C 0,0 km/h (0 Bft)
01.07.2010 06:00 16,4 C 21,0 C 14,7 C 15,4 C 13,4 C 0,0 C 81 % 87 % 0 % 1016,4 hPa 0,0 l/m 0,0 km/h (0 Bft) SW 225 0 min 0,0 UV-I 13,1 C 13,4 C 2,3 km/h (1 Bft)
01.07.2010 06:06 16,5 C 21,0 C 14,6 C 15,4 C 13,3 C 0,0 C 80 % 87 % 0 % 1016,4 hPa 0,0 l/m 0,5 km/h (0 Bft) SW 225 0 min 0,0 UV-I 13,0 C 13,3 C 0,0 km/h (0 Bft)
01.07.2010 06:10 16,7 C 21,0 C 14,6 C 15,5 C 13,2 C 0,0 C 79 % 87 % 0 % 1016,4 hPa 0,0 l/m 0,5 km/h (0 Bft) SW 225 0 min 0,0 UV-I 13,0 C 13,2 C 2,7 km/h (1 Bft)
01.07.2010 06:15 16,7 C 21,0 C 14,7 C 15,5 C 13,1 C 0,0 C 79 % 87 % 0 % 1016,4 hPa 0,0 l/m 0,3 km/h (0 Bft) SW 225 0 min 0,0 UV-I 13,0 C 13,1 C 1,6 km/h (1 Bft)
01.07.2010 06:20 16,7 C 20,9 C 14,5 C 15,6 C 13,3 C 0,0 C 79 % 87 % 0 % 1016,1 hPa 0,0 l/m 0,3 km/h (0 Bft) SW 225 0 min 0,0 UV-I 13,0 C 13,3 C 0,0 km/h (0 Bft)
01.07.2010 06:25 16,6 C 20,9 C 14,5 C 15,5 C 13,4 C 0,0 C 79 % 87 % 0 % 1016,1 hPa 0,0 l/m 0,2 km/h (0 Bft) SW 225 0 min 0,0 UV-I 12,9 C 13,4 C 0,0 km/h (0 Bft)
01.07.2010 06:30 16,5 C 20,9 C 14,5 C 15,5 C 13,4 C 0,0 C 79 % 87 % 0 % 1016,1 hPa 0,0 l/m 0,0 km/h (0 Bft) W-SW 247 0 min 0,0 UV-I 12,8 C 13,4 C 0,0 km/h (0 Bft)
01.07.2010 06:35 16,7 C 20,9 C 14,5 C 15,6 C 13,5 C 0,0 C 79 % 87 % 0 % 1016,1 hPa 0,0 l/m 0,0 km/h (0 Bft) W 270 0 min 0,0 UV-I 13,0 C 13,5 C 0,0 km/h (0 Bft)
01.07.2010 06:40 16,8 C 20,9 C 14,7 C 15,7 C 13,6 C 0,0 C 79 % 87 % 0 % 1016,2 hPa 0,0 l/m 0,0 km/h (0 Bft) W 270 0 min 0,0 UV-I 13,1 C 13,6 C 0,0 km/h (0 Bft)
01.07.2010 06:45 17,2 C 20,8 C 14,7 C 16,1 C 13,8 C 0,0 C 79 % 87 % 0 % 1016,2 hPa 0,0 l/m 0,0 km/h (0 Bft) W 270 0 min 0,0 UV-I 13,5 C 13,8 C 0,0 km/h (0 Bft)
01.07.2010 06:50 17,7 C 20,8 C 14,7 C 16,6 C 14,4 C 0,0 C 78 % 87 % 0 % 1016,2 hPa 0,0 l/m 0,0 km/h (0 Bft) W 270 0 min 0,0 UV-I 13,8 C 14,4 C 0,0 km/h (0 Bft)
01.07.2010 06:55 17,7 C 20,7 C 14,7 C 16,7 C 14,8 C 0,0 C 78 % 87 % 0 % 1016,2 hPa 0,0 l/m 0,0 km/h (0 Bft) NW 315 0 min 0,0 UV-I 13,8 C 14,8 C 0,0 km/h (0 Bft)
01.07.2010 07:00 17,6 C 20,6 C 14,7 C 17,0 C 15,8 C 0,0 C 78 % 87 % 0 % 1016,0 hPa 0,0 l/m 0,0 km/h (0 Bft) SW 225 0 min 0,0 UV-I 13,7 C 15,8 C 0,0 km/h (0 Bft)
01.07.2010 07:06 17,7 C 20,6 C 14,7 C 17,2 C 16,3 C 0,0 C 78 % 87 % 0 % 1016,0 hPa 0,0 l/m 0,0 km/h (0 Bft) SW 225 0 min 0,0 UV-I 13,8 C 16,3 C 0,0 km/h (0 Bft)
01.07.2010 07:10 18,1 C 20,5 C 14,7 C 17,9 C 17,6 C 0,0 C 77 % 87 % 0 % 1016,0 hPa 0,0 l/m 0,0 km/h (0 Bft) SW 225 0 min 0,0 UV-I 14,0 C 17,6 C 0,0 km/h (0 Bft)
01.07.2010 07:15 18,9 C 20,5 C 14,7 C 19,2 C 19,2 C 0,3 C 76 % 87 % 8 % 1016,0 hPa 0,0 l/m 0,0 km/h (0 Bft) S 180 0 min 0,0 UV-I 14,6 C 19,2 C 0,0 km/h (0 Bft)
01.07.2010 07:20 19,2 C 20,4 C 14,7 C 21,2 C 21,2 C 2,0 C 75 % 87 % 53 % 1016,1 hPa 0,0 l/m 0,2 km/h (0 Bft) S 180 0 min 0,0 UV-I 14,7 C 21,2 C 1,8 km/h (1 Bft)
01.07.2010 07:25 19,2 C 20,4 C 14,7 C 22,0 C 22,0 C 2,8 C 75 % 87 % 74 % 1016,1 hPa 0,0 l/m 0,5 km/h (0 Bft) S 180 0 min 0,0 UV-I 14,7 C 22,0 C 0,0 km/h (0 Bft)
01.07.2010 07:30 19,3 C 20,4 C 14,7 C 23,1 C 23,1 C 3,8 C 75 % 87 % 100 % 1016,1 hPa 0,0 l/m 0,6 km/h (0 Bft) SW 225 5 min 0,1 UV-I 14,8 C 23,1 C 0,0 km/h (0 Bft)
01.07.2010 07:35 19,4 C 20,4 C 14,7 C 23,4 C 23,4 C 4,0 C 75 % 87 % 100 % 1016,1 hPa 0,0 l/m 0,8 km/h (0 Bft) S 180 5 min 0,1 UV-I 14,8 C 23,4 C 2,1 km/h (1 Bft)
01.07.2010 07:40 19,5 C 20,4 C 14,7 C 23,8 C 23,8 C 4,3 C 75 % 87 % 100 % 1016,2 hPa 0,0 l/m 0,8 km/h (0 Bft) W-SW 247 5 min 0,1 UV-I 14,9 C 23,8 C 0,0 km/h (0 Bft)
01.07.2010 07:45 19,5 C 20,4 C 14,7 C 23,7 C 23,7 C 4,2 C 74 % 87 % 100 % 1016,2 hPa 0,0 l/m 0,3 km/h (0 Bft) NW 315 5 min 0,1 UV-I 14,7 C 23,7 C 0,0 km/h (0 Bft)
01.07.2010 07:50 19,6 C 20,4 C 14,7 C 24,5 C 24,5 C 4,9 C 75 % 87 % 100 % 1016,2 hPa 0,0 l/m 0,0 km/h (0 Bft) SW 225 5 min 0,2 UV-I 15,0 C 24,5 C 0,0 km/h (0 Bft)
01.07.2010 07:55 19,9 C 20,4 C 14,7 C 25,0 C 25,0 C 5,1 C 74 % 87 % 100 % 1016,2 hPa 0,0 l/m 0,0 km/h (0 Bft) SW 225 5 min 0,2 UV-I 15,1 C 25,0 C 0,0 km/h (0 Bft)
01.07.2010 08:00 20,0 C 20,3 C 14,7 C 25,5 C 25,5 C 5,5 C 73 % 87 % 100 % 1016,4 hPa 0,0 l/m 0,8 km/h (0 Bft) N-NO 22 5 min 0,3 UV-I 15,0 C 25,5 C 5,8 km/h (2 Bft)
01.07.2010 08:10 20,1 C 20,3 C 14,7 C 24,3 C 24,3 C 4,2 C 73 % 87 % 100 % 1016,4 hPa 0,0 l/m 3,9 km/h (1 Bft) NW 315 10 min 0,3 UV-I 15,1 C 24,3 C 10,8 km/h (2 Bft)
01.07.2010 08:15 20,1 C 20,3 C 14,7 C 24,4 C 24,4 C 4,3 C 74 % 87 % 100 % 1016,4 hPa 0,0 l/m 2,7 km/h (1 Bft) N-NO 22 5 min 0,3 UV-I 15,3 C 24,4 C 3,1 km/h (1 Bft)
01.07.2010 08:20 20,4 C 20,3 C 14,7 C 24,6 C 24,6 C 4,2 C 73 % 87 % 100 % 1016,3 hPa 0,0 l/m 2,7 km/h (1 Bft) O-NO 67 5 min 0,4 UV-I 15,4 C 24,6 C 6,0 km/h (2 Bft)
01.07.2010 08:25 20,4 C 20,2 C 14,7 C 24,4 C 24,4 C 4,0 C 72 % 87 % 100 % 1016,3 hPa 0,0 l/m 3,5 km/h (1 Bft) N-NW 337 5 min 0,4 UV-I 15,2 C 24,4 C 5,5 km/h (1 Bft)
01.07.2010 08:30 20,5 C 20,2 C 14,7 C 24,4 C 24,4 C 3,9 C 72 % 87 % 100 % 1016,3 hPa 0,0 l/m 3,2 km/h (1 Bft) NO 45 5 min 0,5 UV-I 15,3 C 24,4 C 2,4 km/h (1 Bft)
01.07.2010 08:35 20,7 C 20,2 C 14,7 C 24,7 C 24,7 C 4,0 C 71 % 87 % 100 % 1016,3 hPa 0,0 l/m 2,6 km/h (1 Bft) NO 45 5 min 0,5 UV-I 15,2 C 24,7 C 2,1 km/h (1 Bft)
01.07.2010 08:40 20,8 C 20,2 C 14,7 C 25,6 C 25,6 C 4,8 C 71 % 87 % 100 % 1017,0 hPa 0,0 l/m 2,1 km/h (1 Bft) NO 45 5 min 0,6 UV-I 15,3 C 25,6 C 3,1 km/h (1 Bft)
01.07.2010 08:45 21,2 C 20,2 C 14,7 C 25,6 C 25,6 C 4,4 C 71 % 87 % 100 % 1017,0 hPa 0,0 l/m 2,1 km/h (1 Bft) O-NO 67 5 min 0,6 UV-I 15,7 C 25,6 C 2,4 km/h (1 Bft)
01.07.2010 08:50 21,3 C 20,2 C 14,7 C 26,1 C 26,1 C 4,8 C 70 % 87 % 100 % 1017,0 hPa 0,0 l/m 2,3 km/h (1 Bft) N-NO 22 5 min 0,7 UV-I 15,6 C 26,1 C 3,2 km/h (1 Bft)
01.07.2010 08:55 21,4 C 20,2 C 14,7 C 26,3 C 26,3 C 4,9 C 69 % 87 % 100 % 1017,0 hPa 0,0 l/m 2,6 km/h (1 Bft) O-NO 67 5 min 0,7 UV-I 15,5 C 26,3 C 5,1 km/h (1 Bft)
01.07.2010 09:00 21,8 C 20,2 C 14,7 C 26,6 C 26,6 C 4,8 C 69 % 87 % 100 % 1016,8 hPa 0,0 l/m 2,9 km/h (1 Bft) O-SO 112 5 min 0,8 UV-I 15,9 C 26,6 C 3,9 km/h (1 Bft)
01.07.2010 09:10 21,5 C 20,2 C 14,7 C 25,6 C 25,6 C 4,1 C 69 % 87 % 100 % 1016,8 hPa 0,0 l/m 4,0 km/h (1 Bft) O 90 10 min 0,9 UV-I 15,6 C 25,6 C 11,3 km/h (2 Bft)
01.07.2010 09:15 21,4 C 20,2 C 14,7 C 25,4 C 25,4 C 4,0 C 70 % 87 % 100 % 1016,8 hPa 0,0 l/m 5,8 km/h (2 Bft) O-NO 67 5 min 0,9 UV-I 15,7 C 25,4 C 9,7 km/h (2 Bft)
01.07.2010 09:20 21,3 C 20,2 C 14,7 C 24,8 C 24,8 C 3,5 C 69 % 87 % 92 % 1016,6 hPa 0,0 l/m 7,6 km/h (2 Bft) NO 45 5 min 0,9 UV-I 15,4 C 24,8 C 14,3 km/h (3 Bft)
01.07.2010 09:25 21,2 C 20,2 C 14,7 C 23,6 C 23,6 C 2,4 C 69 % 87 % 63 % 1016,6 hPa 0,0 l/m 7,2 km/h (2 Bft) O-NO 67 0 min 0,9 UV-I 15,3 C 23,6 C 9,8 km/h (2 Bft)
01.07.2010 09:30 21,3 C 20,2 C 14,7 C 23,0 C 23,0 C 1,7 C 69 % 87 % 45 % 1016,6 hPa 0,0 l/m 6,0 km/h (2 Bft) O-NO 67 0 min 1,0 UV-I 15,4 C 23,0 C 6,0 km/h (2 Bft)
01.07.2010 09:35 21,5 C 20,2 C 14,7 C 23,8 C 23,8 C 2,3 C 69 % 87 % 61 % 1016,6 hPa 0,0 l/m 5,0 km/h (1 Bft) O-SO 112 0 min 1,0 UV-I 15,6 C 23,8 C 2,1 km/h (1 Bft)
01.07.2010 09:40 21,9 C 20,1 C 14,7 C 25,8 C 25,8 C 3,9 C 69 % 87 % 100 % 1016,4 hPa 0,0 l/m 4,7 km/h (1 Bft) O-NO 67 5 min 1,3 UV-I 15,9 C 25,8 C 5,5 km/h (1 Bft)
01.07.2010 09:45 21,9 C 20,1 C 14,7 C 25,5 C 25,5 C 3,6 C 69 % 87 % 95 % 1016,4 hPa 0,0 l/m 4,2 km/h (1 Bft) N-NO 22 5 min 1,3 UV-I 15,9 C 25,5 C 2,6 km/h (1 Bft)
01.07.2010 09:50 21,7 C 20,1 C 14,7 C 24,5 C 24,5 C 2,8 C 68 % 87 % 74 % 1016,4 hPa 0,0 l/m 3,5 km/h (1 Bft) O-NO 67 0 min 1,0 UV-I 15,5 C 24,5 C 8,0 km/h (2 Bft)
01.07.2010 09:55 21,6 C 20,2 C 14,7 C 23,6 C 23,6 C 2,0 C 68 % 87 % 53 % 1016,4 hPa 0,0 l/m 3,9 km/h (1 Bft) O-NO 67 0 min 1,0 UV-I 15,4 C 23,6 C 7,1 km/h (2 Bft)
01.07.2010 10:00 21,7 C 20,2 C 14,7 C 23,7 C 23,7 C 2,0 C 68 % 87 % 53 % 1016,6 hPa 0,0 l/m 4,5 km/h (1 Bft) O-NO 67 0 min 1,3 UV-I 15,5 C 23,7 C 0,0 km/h (0 Bft)
01.07.2010 10:10 22,2 C 20,1 C 14,7 C 25,1 C 25,1 C 2,9 C 67 % 87 % 76 % 1016,6 hPa 0,0 l/m 3,4 km/h (1 Bft) NO 45 0 min 1,3 UV-I 15,8 C 25,1 C 5,0 km/h (1 Bft)
01.07.2010 10:15 22,3 C 20,1 C 14,7 C 25,8 C 25,8 C 3,5 C 67 % 87 % 92 % 1016,6 hPa 0,0 l/m 4,0 km/h (1 Bft) N-NO 22 5 min 1,3 UV-I 15,9 C 25,8 C 4,7 km/h (1 Bft)
01.07.2010 10:20 22,7 C 20,1 C 14,7 C 26,9 C 26,9 C 4,2 C 66 % 87 % 100 % 1016,4 hPa 0,0 l/m 3,7 km/h (1 Bft) O-NO 67 5 min 1,5 UV-I 16,0 C 26,9 C 4,5 km/h (1 Bft)
01.07.2010 10:25 22,8 C 20,1 C 14,7 C 27,4 C 27,4 C 4,6 C 65 % 87 % 100 % 1016,4 hPa 0,0 l/m 3,9 km/h (1 Bft) O-NO 67 5 min 1,5 UV-I 15,9 C 27,4 C 4,2 km/h (1 Bft)
01.07.2010 10:30 23,0 C 20,1 C 14,7 C 27,4 C 27,4 C 4,4 C 64 % 87 % 100 % 1016,4 hPa 0,0 l/m 3,9 km/h (1 Bft) O-SO 112 5 min 2,1 UV-I 15,8 C 27,4 C 1,8 km/h (1 Bft)
01.07.2010 10:35 23,0 C 20,1 C 14,7 C 27,4 C 27,4 C 4,4 C 65 % 87 % 100 % 1016,4 hPa 0,0 l/m 3,9 km/h (1 Bft) NO 45 5 min 2,1 UV-I 16,1 C 27,4 C 4,5 km/h (1 Bft)
01.07.2010 10:40 23,5 C 20,1 C 14,7 C 27,5 C 27,5 C 4,0 C 64 % 87 % 100 % 1016,4 hPa 0,0 l/m 3,7 km/h (1 Bft) O 90 5 min 2,4 UV-I 16,3 C 27,5 C 3,2 km/h (1 Bft)
01.07.2010 10:45 23,6 C 20,1 C 14,7 C 27,9 C 27,9 C 4,3 C 63 % 87 % 100 % 1016,4 hPa 0,0 l/m 4,0 km/h (1 Bft) NO 45 5 min 2,4 UV-I 16,1 C 27,9 C 2,9 km/h (1 Bft)
01.07.2010 10:50 23,8 C 20,1 C 14,7 C 28,4 C 28,4 C 4,6 C 62 % 87 % 100 % 1016,4 hPa 0,0 l/m 3,4 km/h (1 Bft) NO 45 5 min 2,7 UV-I 16,1 C 28,4 C 7,2 km/h (2 Bft)
01.07.2010 10:55 23,9 C 20,1 C 14,7 C 28,3 C 28,3 C 4,4 C 63 % 87 % 100 % 1016,4 hPa 0,0 l/m 4,0 km/h (1 Bft) O-NO 67 5 min 2,7 UV-I 16,4 C 28,3 C 5,6 km/h (1 Bft)
01.07.2010 11:00 24,1 C 20,2 C 14,7 C 28,1 C 28,1 C 4,0 C 62 % 87 % 100 % 1016,1 hPa 0,0 l/m 4,5 km/h (1 Bft) NW 315 5 min 2,6 UV-I 16,4 C 28,1 C 6,8 km/h (2 Bft)
01.07.2010 11:10 24,5 C 20,2 C 14,7 C 29,1 C 29,1 C 4,6 C 60 % 87 % 100 % 1016,1 hPa 0,0 l/m 2,4 km/h (1 Bft) NO 45 10 min 2,9 UV-I 16,2 C 29,1 C 4,5 km/h (1 Bft)
01.07.2010 11:15 24,7 C 20,2 C 14,7 C 29,5 C 29,5 C 4,8 C 60 % 87 % 100 % 1016,1 hPa 0,0 l/m 2,1 km/h (1 Bft) O-NO 67 5 min 2,9 UV-I 16,4 C 29,5 C 6,6 km/h (2 Bft)
01.07.2010 11:20 24,8 C 20,1 C 14,7 C 29,5 C 29,5 C 4,7 C 60 % 87 % 100 % 1016,0 hPa 0,0 l/m 2,7 km/h (1 Bft) N-NO 22 5 min 3,0 UV-I 16,5 C 29,5 C 4,3 km/h (1 Bft)
01.07.2010 11:25 24,9 C 20,1 C 14,7 C 29,6 C 29,6 C 4,7 C 60 % 87 % 100 % 1016,0 hPa 0,0 l/m 2,3 km/h (1 Bft) O-NO 67 5 min 3,0 UV-I 16,6 C 29,6 C 0,0 km/h (0 Bft)
01.07.2010 11:30 25,1 C 20,1 C 14,7 C 30,5 C 30,5 C 5,4 C 59 % 87 % 100 % 1016,0 hPa 0,0 l/m 1,1 km/h (1 Bft) NW 315 5 min 3,2 UV-I 16,5 C 30,5 C 1,9 km/h (1 Bft)
01.07.2010 11:35 25,1 C 20,1 C 14,7 C 31,0 C 31,0 C 5,9 C 58 % 87 % 100 % 1016,0 hPa 0,0 l/m 1,4 km/h (1 Bft) SW 225 5 min 3,2 UV-I 16,2 C 31,0 C 3,7 km/h (1 Bft)
01.07.2010 11:40 25,2 C 20,1 C 14,7 C 31,5 C 31,5 C 6,3 C 58 % 87 % 100 % 1016,1 hPa 0,0 l/m 1,8 km/h (1 Bft) NW 315 5 min 3,4 UV-I 16,3 C 31,5 C 0,0 km/h (0 Bft)
01.07.2010 11:45 25,5 C 20,2 C 14,7 C 31,9 C 31,9 C 6,4 C 57 % 87 % 100 % 1016,1 hPa 0,0 l/m 0,6 km/h (0 Bft) O 90 5 min 3,4 UV-I 16,3 C 31,9 C 1,6 km/h (1 Bft)
01.07.2010 11:50 25,6 C 20,2 C 14,7 C 31,7 C 31,7 C 6,1 C 57 % 87 % 100 % 1016,1 hPa 0,0 l/m 1,1 km/h (1 Bft) O-NO 67 5 min 3,5 UV-I 16,4 C 31,7 C 5,1 km/h (1 Bft)
01.07.2010 11:55 25,7 C 20,2 C 14,7 C 31,1 C 31,1 C 5,4 C 56 % 87 % 100 % 1016,1 hPa 0,0 l/m 2,1 km/h (1 Bft) NO 45 5 min 3,5 UV-I 16,2 C 31,1 C 6,0 km/h (2 Bft)
01.07.2010 12:00 25,9 C 20,2 C 14,7 C 30,8 C 30,8 C 4,9 C 56 % 87 % 100 % 1016,2 hPa 0,0 l/m 2,6 km/h (1 Bft) NW 315 5 min 3,5 UV-I 16,4 C 30,8 C 4,0 km/h (1 Bft)
01.07.2010 12:10 26,0 C 20,2 C 14,7 C 31,0 C 31,0 C 5,0 C 56 % 87 % 100 % 1016,2 hPa 0,0 l/m 3,5 km/h (1 Bft) W-SW 247 10 min 3,4 UV-I 16,5 C 31,0 C 7,1 km/h (2 Bft)
01.07.2010 12:15 26,1 C 20,2 C 14,7 C 30,9 C 30,9 C 4,8 C 56 % 87 % 100 % 1016,2 hPa 0,0 l/m 3,9 km/h (1 Bft) W-SW 247 5 min 3,4 UV-I 16,6 C 30,9 C 3,5 km/h (1 Bft)
01.07.2010 12:20 26,3 C 20,2 C 14,7 C 31,3 C 31,3 C 5,0 C 55 % 87 % 100 % 1015,9 hPa 0,0 l/m 3,2 km/h (1 Bft) W 270 5 min 3,7 UV-I 16,5 C 31,3 C 0,0 km/h (0 Bft)
01.07.2010 12:25 26,5 C 20,2 C 14,7 C 31,5 C 31,5 C 5,0 C 55 % 87 % 100 % 1015,9 hPa 0,0 l/m 2,7 km/h (1 Bft) SW 225 5 min 3,7 UV-I 16,7 C 31,5 C 5,3 km/h (1 Bft)
01.07.2010 12:30 26,5 C 20,2 C 14,7 C 31,6 C 31,6 C 5,1 C 55 % 87 % 100 % 1015,9 hPa 0,0 l/m 3,1 km/h (1 Bft) SW 225 5 min 3,5 UV-I 16,7 C 31,6 C 5,3 km/h (1 Bft)
01.07.2010 12:35 26,7 C 20,2 C 14,7 C 31,5 C 31,5 C 4,8 C 54 % 87 % 100 % 1015,9 hPa 0,0 l/m 3,2 km/h (1 Bft) S 180 5 min 3,5 UV-I 16,6 C 31,5 C 0,0 km/h (0 Bft)
01.07.2010 12:40 26,9 C 20,2 C 14,7 C 32,0 C 32,0 C 5,1 C 54 % 87 % 100 % 1016,1 hPa 0,0 l/m 2,1 km/h (1 Bft) S 180 5 min 4,0 UV-I 16,8 C 32,0 C 1,6 km/h (1 Bft)
01.07.2010 12:45 26,9 C 20,2 C 14,7 C 32,5 C 32,5 C 5,6 C 53 % 87 % 100 % 1016,1 hPa 0,0 l/m 1,8 km/h (1 Bft) O-NO 67 5 min 4,0 UV-I 16,5 C 32,5 C 1,9 km/h (1 Bft)
01.07.2010 12:50 27,1 C 20,2 C 14,7 C 32,7 C 32,7 C 5,6 C 51 % 87 % 100 % 1016,1 hPa 0,0 l/m 1,4 km/h (1 Bft) O-NO 67 5 min 3,7 UV-I 16,1 C 32,7 C 3,5 km/h (1 Bft)
01.07.2010 12:55 27,0 C 20,2 C 14,7 C 32,3 C 32,3 C 5,3 C 51 % 87 % 100 % 1016,1 hPa 0,0 l/m 1,6 km/h (1 Bft) NW 315 5 min 3,7 UV-I 16,0 C 32,3 C 0,0 km/h (0 Bft)
01.07.2010 13:00 27,2 C 20,3 C 14,7 C 32,5 C 32,5 C 5,3 C 51 % 87 % 100 % 1015,8 hPa 0,0 l/m 2,1 km/h (1 Bft) S 180 5 min 3,9 UV-I 16,2 C 32,5 C 4,2 km/h (1 Bft)
01.07.2010 13:10 27,5 C 20,3 C 14,7 C 33,3 C 33,3 C 5,8 C 50 % 87 % 100 % 1015,8 hPa 0,0 l/m 1,4 km/h (1 Bft) SO 135 10 min 3,5 UV-I 16,1 C 33,3 C 0,0 km/h (0 Bft)
01.07.2010 13:15 27,4 C 20,3 C 14,7 C 33,1 C 33,1 C 5,7 C 50 % 87 % 100 % 1015,8 hPa 0,0 l/m 0,8 km/h (0 Bft) O-NO 67 5 min 3,5 UV-I 16,0 C 33,1 C 1,9 km/h (1 Bft)
01.07.2010 13:20 27,3 C 20,3 C 14,7 C 32,3 C 32,3 C 5,0 C 51 % 87 % 100 % 1015,8 hPa 0,0 l/m 0,6 km/h (0 Bft) W 270 5 min 3,3 UV-I 16,3 C 32,3 C 2,3 km/h (1 Bft)
01.07.2010 13:25 27,5 C 20,3 C 14,7 C 32,2 C 32,2 C 4,7 C 51 % 87 % 100 % 1015,8 hPa 0,0 l/m 2,3 km/h (1 Bft) SW 225 5 min 3,3 UV-I 16,4 C 32,2 C 4,8 km/h (1 Bft)
01.07.2010 13:30 27,8 C 20,4 C 14,7 C 32,4 C 32,4 C 4,6 C 49 % 87 % 100 % 1015,8 hPa 0,0 l/m 3,5 km/h (1 Bft) SO 135 5 min 4,2 UV-I 16,1 C 32,4 C 0,0 km/h (0 Bft)
01.07.2010 13:35 27,8 C 20,4 C 14,7 C 32,9 C 32,9 C 5,1 C 50 % 87 % 100 % 1015,8 hPa 0,0 l/m 2,9 km/h (1 Bft) SW 225 5 min 4,2 UV-I 16,4 C 32,9 C 5,1 km/h (1 Bft)
01.07.2010 13:40 27,8 C 20,4 C 14,7 C 32,9 C 32,9 C 5,1 C 50 % 87 % 100 % 1015,6 hPa 0,0 l/m 2,6 km/h (1 Bft) W-SW 247 5 min 3,6 UV-I 16,4 C 32,9 C 3,1 km/h (1 Bft)
01.07.2010 13:45 27,9 C 20,4 C 14,7 C 32,8 C 32,8 C 4,9 C 49 % 87 % 100 % 1015,6 hPa 0,0 l/m 3,9 km/h (1 Bft) SW 225 5 min 3,6 UV-I 16,2 C 32,8 C 7,4 km/h (2 Bft)
01.07.2010 13:50 28,1 C 20,5 C 14,7 C 32,7 C 32,7 C 4,6 C 49 % 87 % 100 % 1015,6 hPa 0,0 l/m 5,0 km/h (1 Bft) S 180 5 min 3,9 UV-I 16,4 C 32,7 C 5,8 km/h (2 Bft)
01.07.2010 13:55 28,3 C 20,5 C 14,7 C 32,5 C 32,5 C 4,2 C 49 % 87 % 100 % 1015,6 hPa 0,0 l/m 5,0 km/h (1 Bft) SW 225 5 min 3,9 UV-I 16,5 C 32,5 C 5,5 km/h (1 Bft)
01.07.2010 14:00 28,2 C 20,5 C 14,7 C 32,1 C 32,1 C 3,9 C 48 % 87 % 100 % 1015,5 hPa 0,0 l/m 5,5 km/h (1 Bft) S 180 5 min 3,4 UV-I 16,1 C 32,1 C 7,1 km/h (2 Bft)
01.07.2010 14:10 28,4 C 20,5 C 14,7 C 32,5 C 32,5 C 4,1 C 47 % 87 % 100 % 1015,5 hPa 0,0 l/m 3,7 km/h (1 Bft) NW 315 10 min 3,9 UV-I 16,0 C 32,5 C 2,9 km/h (1 Bft)
01.07.2010 14:15 28,4 C 20,6 C 14,7 C 32,9 C 32,9 C 4,5 C 47 % 87 % 100 % 1015,5 hPa 0,0 l/m 2,6 km/h (1 Bft) N-NW 337 5 min 3,9 UV-I 16,0 C 32,9 C 3,9 km/h (1 Bft)
01.07.2010 14:20 28,3 C 20,6 C 14,7 C 32,4 C 32,4 C 4,1 C 47 % 87 % 100 % 1015,6 hPa 0,0 l/m 3,4 km/h (1 Bft) SO 135 5 min 2,7 UV-I 15,9 C 32,4 C 2,3 km/h (1 Bft)
01.07.2010 14:25 28,3 C 20,6 C 14,7 C 32,2 C 32,2 C 3,9 C 48 % 87 % 100 % 1015,6 hPa 0,0 l/m 2,7 km/h (1 Bft) S 180 5 min 2,7 UV-I 16,2 C 32,2 C 3,7 km/h (1 Bft)
01.07.2010 14:30 28,1 C 20,6 C 14,7 C 32,0 C 32,0 C 3,9 C 48 % 87 % 100 % 1015,6 hPa 0,0 l/m 2,6 km/h (1 Bft) SW 225 5 min 2,1 UV-I 16,0 C 32,0 C 6,1 km/h (2 Bft)
01.07.2010 14:35 28,1 C 20,6 C 14,7 C 31,5 C 31,5 C 3,4 C 48 % 87 % 89 % 1015,6 hPa 0,0 l/m 2,9 km/h (1 Bft) N-NW 337 5 min 2,1 UV-I 16,0 C 31,5 C 2,1 km/h (1 Bft)
01.07.2010 14:40 28,1 C 20,6 C 14,7 C 31,4 C 31,4 C 3,3 C 49 % 87 % 87 % 1015,2 hPa 0,0 l/m 3,2 km/h (1 Bft) S-SW 202 5 min 2,4 UV-I 16,4 C 31,4 C 5,8 km/h (2 Bft)
01.07.2010 14:45 28,0 C 20,6 C 14,7 C 31,4 C 31,4 C 3,4 C 49 % 87 % 89 % 1015,2 hPa 0,0 l/m 3,5 km/h (1 Bft) W-SW 247 5 min 2,4 UV-I 16,3 C 31,4 C 8,0 km/h (2 Bft)
01.07.2010 14:50 28,0 C 20,7 C 14,7 C 30,9 C 30,9 C 2,9 C 48 % 87 % 76 % 1015,2 hPa 0,0 l/m 4,3 km/h (1 Bft) SW 225 0 min 1,9 UV-I 15,9 C 30,9 C 4,2 km/h (1 Bft)
01.07.2010 14:55 28,0 C 20,8 C 14,7 C 30,9 C 30,9 C 2,9 C 48 % 87 % 76 % 1015,2 hPa 0,0 l/m 3,7 km/h (1 Bft) S-SW 202 0 min 1,9 UV-I 15,9 C 30,9 C 4,5 km/h (1 Bft)
01.07.2010 15:00 28,3 C 20,7 C 14,7 C 31,2 C 31,2 C 2,9 C 48 % 87 % 76 % 1015,5 hPa 0,0 l/m 3,7 km/h (1 Bft) W-SW 247 0 min 2,8 UV-I 16,2 C 31,2 C 4,2 km/h (1 Bft)
01.07.2010 15:10 28,6 C 20,8 C 14,7 C 32,6 C 32,6 C 4,0 C 45 % 87 % 100 % 1015,5 hPa 0,0 l/m 2,6 km/h (1 Bft) NW 315 10 min 2,7 UV-I 15,5 C 32,6 C 3,4 km/h (1 Bft)
01.07.2010 15:15 28,5 C 20,8 C 14,7 C 32,9 C 32,9 C 4,4 C 45 % 87 % 100 % 1015,5 hPa 0,0 l/m 2,3 km/h (1 Bft) W-SW 247 5 min 2,7 UV-I 15,4 C 32,9 C 0,0 km/h (0 Bft)
01.07.2010 15:20 28,7 C 20,8 C 14,7 C 32,9 C 32,9 C 4,2 C 43 % 87 % 100 % 1015,3 hPa 0,0 l/m 2,3 km/h (1 Bft) NW 315 5 min 2,3 UV-I 14,9 C 32,9 C 4,2 km/h (1 Bft)
01.07.2010 15:25 28,5 C 20,8 C 14,7 C 32,5 C 32,5 C 4,0 C 42 % 87 % 100 % 1015,3 hPa 0,0 l/m 3,2 km/h (1 Bft) W 270 5 min 2,3 UV-I 14,3 C 32,5 C 6,6 km/h (2 Bft)
01.07.2010 15:30 28,5 C 20,8 C 14,7 C 31,8 C 31,8 C 3,3 C 43 % 87 % 87 % 1015,3 hPa 0,0 l/m 4,5 km/h (1 Bft) SW 225 5 min 1,8 UV-I 14,7 C 31,8 C 7,2 km/h (2 Bft)
01.07.2010 15:35 28,4 C 20,9 C 14,7 C 31,4 C 31,4 C 3,0 C 43 % 87 % 79 % 1015,3 hPa 0,0 l/m 4,7 km/h (1 Bft) S 180 0 min 1,8 UV-I 14,6 C 31,4 C 4,7 km/h (1 Bft)
01.07.2010 15:40 28,4 C 21,0 C 14,7 C 30,9 C 30,9 C 2,5 C 44 % 87 % 66 % 1015,4 hPa 0,0 l/m 4,8 km/h (1 Bft) S 180 0 min 1,8 UV-I 14,9 C 30,9 C 4,5 km/h (1 Bft)
01.07.2010 15:45 28,4 C 21,0 C 14,7 C 31,1 C 31,1 C 2,7 C 44 % 87 % 71 % 1015,4 hPa 0,0 l/m 3,9 km/h (1 Bft) W 270 0 min 1,8 UV-I 14,9 C 31,1 C 4,7 km/h (1 Bft)
01.07.2010 15:50 28,5 C 21,0 C 14,7 C 31,6 C 31,6 C 3,1 C 45 % 87 % 82 % 1015,4 hPa 0,0 l/m 1,9 km/h (1 Bft) W-NW 292 0 min 2,1 UV-I 15,4 C 31,6 C 0,0 km/h (0 Bft)
01.07.2010 15:55 28,7 C 21,0 C 14,7 C 32,1 C 32,1 C 3,4 C 44 % 87 % 89 % 1015,4 hPa 0,0 l/m 1,6 km/h (1 Bft) S-SW 202 5 min 2,1 UV-I 15,2 C 32,1 C 4,3 km/h (1 Bft)
01.07.2010 16:00 28,8 C 21,0 C 14,7 C 32,6 C 32,6 C 3,8 C 44 % 87 % 100 % 1015,2 hPa 0,0 l/m 1,6 km/h (1 Bft) W-NW 292 5 min 2,3 UV-I 15,3 C 32,6 C 0,0 km/h (0 Bft)
01.07.2010 16:07 29,0 C 21,0 C 14,7 C 33,1 C 33,1 C 4,1 C 42 % 87 % 100 % 1015,2 hPa 0,0 l/m 2,7 km/h (1 Bft) N 0 7 min 2,0 UV-I 14,8 C 33,1 C 5,0 km/h (1 Bft)
01.07.2010 16:10 29,0 C 21,0 C 14,7 C 33,1 C 33,1 C 4,1 C 42 % 87 % 100 % 1015,2 hPa 0,0 l/m 2,7 km/h (1 Bft) W-SW 247 3 min 2,0 UV-I 14,8 C 33,1 C 5,0 km/h (1 Bft)
01.07.2010 16:15 28,9 C 21,1 C 14,7 C 32,8 C 32,8 C 3,9 C 42 % 87 % 100 % 1015,2 hPa 0,0 l/m 3,2 km/h (1 Bft) SW 225 5 min 2,0 UV-I 14,7 C 32,8 C 5,8 km/h (2 Bft)
01.07.2010 16:20 28,9 C 21,2 C 14,7 C 32,5 C 32,5 C 3,6 C 42 % 87 % 95 % 1015,2 hPa 0,0 l/m 2,3 km/h (1 Bft) NW 315 5 min 1,8 UV-I 14,7 C 32,5 C 2,7 km/h (1 Bft)
01.07.2010 16:25 29,1 C 21,2 C 14,7 C 32,6 C 32,6 C 3,5 C 42 % 87 % 92 % 1015,2 hPa 0,0 l/m 1,6 km/h (1 Bft) SW 225 5 min 1,8 UV-I 14,9 C 32,6 C 3,5 km/h (1 Bft)
01.07.2010 16:30 29,1 C 21,2 C 14,7 C 32,7 C 32,7 C 3,6 C 42 % 87 % 95 % 1015,2 hPa 0,0 l/m 2,4 km/h (1 Bft) O 90 5 min 1,8 UV-I 14,9 C 32,7 C 5,8 km/h (2 Bft)
01.07.2010 16:35 29,1 C 21,2 C 14,7 C 32,5 C 32,5 C 3,4 C 42 % 87 % 89 % 1015,2 hPa 0,0 l/m 3,4 km/h (1 Bft) SW 225 5 min 1,8 UV-I 14,9 C 32,5 C 4,5 km/h (1 Bft)
01.07.2010 16:40 29,1 C 21,2 C 14,7 C 32,2 C 32,2 C 3,1 C 43 % 87 % 82 % 1015,1 hPa 0,0 l/m 2,7 km/h (1 Bft) S 180 0 min 1,5 UV-I 15,2 C 32,2 C 0,0 km/h (0 Bft)
01.07.2010 16:45 29,1 C 21,3 C 14,7 C 32,2 C 32,2 C 3,1 C 43 % 87 % 82 % 1015,1 hPa 0,0 l/m 2,6 km/h (1 Bft) S 180 0 min 1,5 UV-I 15,2 C 32,2 C 4,7 km/h (1 Bft)
01.07.2010 16:50 29,0 C 21,3 C 14,7 C 31,7 C 31,7 C 2,7 C 43 % 87 % 71 % 1015,1 hPa 0,0 l/m 2,3 km/h (1 Bft) SW 225 0 min 1,3 UV-I 15,1 C 31,7 C 4,2 km/h (1 Bft)
01.07.2010 16:55 29,0 C 21,3 C 14,7 C 31,6 C 31,6 C 2,6 C 43 % 87 % 68 % 1015,1 hPa 0,0 l/m 2,7 km/h (1 Bft) W-SW 247 0 min 1,3 UV-I 15,1 C 31,6 C 3,2 km/h (1 Bft)
01.07.2010 17:00 28,9 C 21,3 C 14,7 C 31,3 C 31,3 C 2,4 C 44 % 87 % 63 % 1014,8 hPa 0,0 l/m 3,2 km/h (1 Bft) SW 225 0 min 1,1 UV-I 15,4 C 31,3 C 3,5 km/h (1 Bft)
01.07.2010 17:07 29,1 C 21,4 C 29,2 C 31,1 C 31,1 C 2,0 C 43 % 42 % 53 % 1014,8 hPa 0,0 l/m 3,4 km/h (1 Bft) N 0 0 min 1,3 UV-I 15,2 C 31,1 C 5,5 km/h (1 Bft)
01.07.2010 17:10 29,1 C 21,4 C 29,2 C 31,1 C 31,1 C 2,0 C 43 % 42 % 53 % 1014,8 hPa 0,0 l/m 3,4 km/h (1 Bft) SW 225 0 min 1,3 UV-I 15,2 C 31,1 C 5,5 km/h (1 Bft)
01.07.2010 17:15 29,2 C 21,4 C 29,5 C 31,4 C 31,4 C 2,2 C 43 % 41 % 58 % 1014,8 hPa 0,0 l/m 3,2 km/h (1 Bft) S 180 0 min 1,3 UV-I 15,3 C 31,4 C 3,7 km/h (1 Bft)
01.07.2010 17:20 29,3 C 21,4 C 29,5 C 31,7 C 31,7 C 2,4 C 43 % 41 % 63 % 1014,9 hPa 0,0 l/m 3,7 km/h (1 Bft) SW 225 0 min 1,2 UV-I 15,4 C 31,7 C 6,1 km/h (2 Bft)
01.07.2010 17:25 29,1 C 21,4 C 29,5 C 31,5 C 31,5 C 2,4 C 43 % 41 % 63 % 1014,9 hPa 0,0 l/m 3,4 km/h (1 Bft) S-SO 157 0 min 1,2 UV-I 15,2 C 31,5 C 2,3 km/h (1 Bft)
01.07.2010 17:30 29,1 C 21,4 C 29,5 C 31,2 C 31,2 C 2,1 C 43 % 41 % 55 % 1014,9 hPa 0,0 l/m 2,4 km/h (1 Bft) NW 315 0 min 0,9 UV-I 15,2 C 31,2 C 0,0 km/h (0 Bft)
01.07.2010 17:35 29,0 C 21,4 C 29,5 C 31,2 C 31,2 C 2,2 C 43 % 41 % 58 % 1014,9 hPa 0,0 l/m 1,4 km/h (1 Bft) NO 45 0 min 0,9 UV-I 15,1 C 31,2 C 0,0 km/h (0 Bft)
01.07.2010 17:40 29,0 C 21,4 C 29,5 C 31,1 C 31,1 C 2,1 C 43 % 41 % 55 % 1015,1 hPa 0,0 l/m 0,6 km/h (0 Bft) S-SO 157 0 min 0,8 UV-I 15,1 C 31,1 C 2,6 km/h (1 Bft)
01.07.2010 17:45 29,1 C 21,5 C 29,5 C 31,4 C 31,4 C 2,3 C 43 % 41 % 61 % 1015,1 hPa 0,0 l/m 1,0 km/h (0 Bft) W-SW 247 0 min 0,8 UV-I 15,2 C 31,4 C 2,7 km/h (1 Bft)
01.07.2010 17:50 29,2 C 21,5 C 29,5 C 31,4 C 31,4 C 2,2 C 43 % 41 % 58 % 1015,1 hPa 0,0 l/m 2,4 km/h (1 Bft) W-SW 247 0 min 0,8 UV-I 15,3 C 31,4 C 3,2 km/h (1 Bft)
01.07.2010 17:55 29,2 C 21,5 C 29,5 C 31,4 C 31,4 C 2,2 C 42 % 41 % 58 % 1015,1 hPa 0,0 l/m 3,2 km/h (1 Bft) S 180 0 min 0,8 UV-I 14,9 C 31,4 C 2,6 km/h (1 Bft)
01.07.2010 18:00 29,2 C 21,5 C 29,5 C 31,1 C 31,1 C 1,9 C 42 % 41 % 50 % 1014,8 hPa 0,0 l/m 3,4 km/h (1 Bft) S 180 0 min 0,7 UV-I 14,9 C 31,1 C 2,6 km/h (1 Bft)
01.07.2010 18:07 29,3 C 21,5 C 29,5 C 31,2 C 31,2 C 1,9 C 42 % 41 % 50 % 1014,8 hPa 0,0 l/m 2,7 km/h (1 Bft) N 0 0 min 0,5 UV-I 15,0 C 31,2 C 1,6 km/h (1 Bft)
01.07.2010 18:10 29,3 C 21,5 C 29,5 C 31,2 C 31,2 C 1,9 C 42 % 41 % 50 % 1014,8 hPa 0,0 l/m 2,7 km/h (1 Bft) S 180 0 min 0,5 UV-I 15,0 C 31,2 C 1,6 km/h (1 Bft)
01.07.2010 18:15 29,2 C 21,5 C 29,5 C 31,1 C 31,1 C 1,9 C 42 % 41 % 50 % 1014,8 hPa 0,0 l/m 2,1 km/h (1 Bft) SW 225 0 min 0,5 UV-I 14,9 C 31,1 C 0,0 km/h (0 Bft)
01.07.2010 18:20 29,1 C 21,5 C 29,5 C 30,8 C 30,8 C 1,7 C 43 % 41 % 45 % 1014,8 hPa 0,0 l/m 0,6 km/h (0 Bft) O-NO 67 0 min 0,4 UV-I 15,2 C 30,8 C 0,0 km/h (0 Bft)
01.07.2010 18:25 29,1 C 21,5 C 29,5 C 30,6 C 30,6 C 1,5 C 43 % 41 % 39 % 1014,8 hPa 0,0 l/m 0,0 km/h (0 Bft) O-NO 67 0 min 0,4 UV-I 15,2 C 30,6 C 0,0 km/h (0 Bft)
01.07.2010 18:30 28,9 C 21,6 C 29,5 C 30,3 C 30,3 C 1,4 C 43 % 41 % 37 % 1014,8 hPa 0,0 l/m 0,0 km/h (0 Bft) W-NW 292 0 min 0,3 UV-I 15,0 C 30,3 C 0,0 km/h (0 Bft)
01.07.2010 18:35 28,9 C 21,6 C 29,5 C 30,2 C 30,2 C 1,3 C 43 % 41 % 34 % 1014,8 hPa 0,0 l/m 0,5 km/h (0 Bft) W-SW 247 0 min 0,3 UV-I 15,0 C 30,2 C 0,0 km/h (0 Bft)
01.07.2010 18:40 28,7 C 21,6 C 29,5 C 29,9 C 29,9 C 1,2 C 44 % 41 % 32 % 1015,0 hPa 0,0 l/m 0,6 km/h (0 Bft) NW 315 0 min 0,2 UV-I 15,2 C 29,9 C 2,1 km/h (1 Bft)
01.07.2010 18:45 28,9 C 21,6 C 29,5 C 29,9 C 29,9 C 1,0 C 45 % 41 % 26 % 1015,0 hPa 0,0 l/m 0,3 km/h (0 Bft) O-NO 67 0 min 0,2 UV-I 15,8 C 29,9 C 0,0 km/h (0 Bft)
01.07.2010 18:50 29,0 C 21,6 C 29,5 C 30,2 C 30,2 C 1,2 C 45 % 41 % 32 % 1015,0 hPa 0,0 l/m 0,5 km/h (0 Bft) N-NO 22 0 min 0,2 UV-I 15,8 C 30,2 C 3,2 km/h (1 Bft)
01.07.2010 18:55 29,3 C 21,6 C 29,5 C 30,9 C 30,9 C 1,6 C 44 % 41 % 42 % 1015,0 hPa 0,0 l/m 0,3 km/h (0 Bft) NW 315 0 min 0,2 UV-I 15,8 C 30,9 C 0,0 km/h (0 Bft)
01.07.2010 19:00 29,3 C 21,6 C 29,5 C 31,7 C 31,7 C 2,4 C 43 % 41 % 63 % 1015,0 hPa 0,0 l/m 0,5 km/h (0 Bft) O-NO 67 0 min 0,2 UV-I 15,4 C 31,7 C 0,0 km/h (0 Bft)
01.07.2010 19:07 29,1 C 21,6 C 29,5 C 31,4 C 31,4 C 2,3 C 43 % 41 % 61 % 1015,0 hPa 0,0 l/m 0,5 km/h (0 Bft) N 0 0 min 0,1 UV-I 15,2 C 31,4 C 0,0 km/h (0 Bft)
01.07.2010 19:10 29,1 C 21,6 C 29,5 C 31,4 C 31,4 C 2,3 C 43 % 41 % 61 % 1015,0 hPa 0,0 l/m 0,5 km/h (0 Bft) NO 45 0 min 0,1 UV-I 15,2 C 31,4 C 0,0 km/h (0 Bft)
01.07.2010 19:15 28,9 C 21,6 C 29,5 C 30,9 C 30,9 C 2,0 C 43 % 41 % 53 % 1015,0 hPa 0,0 l/m 0,3 km/h (0 Bft) N-NW 337 0 min 0,1 UV-I 15,0 C 30,9 C 0,0 km/h (0 Bft)
01.07.2010 19:20 28,6 C 21,6 C 29,5 C 30,2 C 30,2 C 1,6 C 45 % 41 % 42 % 1014,8 hPa 0,0 l/m 0,3 km/h (0 Bft) NO 45 0 min 0,1 UV-I 15,5 C 30,2 C 0,0 km/h (0 Bft)
01.07.2010 19:25 28,4 C 21,6 C 29,5 C 29,5 C 29,5 C 1,1 C 45 % 41 % 29 % 1014,8 hPa 0,0 l/m 0,2 km/h (0 Bft) N-NO 22 0 min 0,1 UV-I 15,3 C 29,5 C 0,0 km/h (0 Bft)
01.07.2010 19:30 28,5 C 21,6 C 29,5 C 28,9 C 28,9 C 0,4 C 47 % 41 % 11 % 1014,8 hPa 0,0 l/m 0,0 km/h (0 Bft) O-NO 67 0 min 0,0 UV-I 16,1 C 28,9 C 0,0 km/h (0 Bft)
01.07.2010 19:35 28,4 C 21,7 C 29,5 C 28,7 C 28,7 C 0,3 C 48 % 41 % 8 % 1014,8 hPa 0,0 l/m 0,0 km/h (0 Bft) O-NO 67 0 min 0,0 UV-I 16,3 C 28,7 C 0,0 km/h (0 Bft)
01.07.2010 19:40 28,4 C 21,7 C 29,5 C 28,8 C 28,8 C 0,4 C 46 % 41 % 11 % 1014,9 hPa 0,0 l/m 0,0 km/h (0 Bft) O 90 0 min 0,0 UV-I 15,6 C 28,8 C 0,0 km/h (0 Bft)
01.07.2010 19:45 28,3 C 21,7 C 29,5 C 28,6 C 28,6 C 0,3 C 46 % 41 % 8 % 1014,9 hPa 0,0 l/m 0,0 km/h (0 Bft) O 90 0 min 0,0 UV-I 15,6 C 28,6 C 0,0 km/h (0 Bft)
01.07.2010 19:50 27,8 C 21,7 C 29,5 C 28,3 C 28,3 C 0,5 C 46 % 41 % 13 % 1014,9 hPa 0,0 l/m 0,0 km/h (0 Bft) O 90 0 min 0,0 UV-I 15,1 C 28,3 C 0,0 km/h (0 Bft)
01.07.2010 19:55 27,7 C 21,7 C 29,5 C 27,8 C 27,8 C 0,1 C 46 % 41 % 3 % 1014,9 hPa 0,0 l/m 0,0 km/h (0 Bft) O 90 0 min 0,0 UV-I 15,0 C 27,8 C 0,0 km/h (0 Bft)
01.07.2010 20:00 27,4 C 21,7 C 29,5 C 27,3 C 27,0 C 0,0 C 49 % 41 % 0 % 1014,4 hPa 0,0 l/m 0,2 km/h (0 Bft) N-NO 22 0 min 0,0 UV-I 15,7 C 27,0 C 0,0 km/h (0 Bft)
01.07.2010 20:07 27,2 C 21,8 C 29,5 C 26,8 C 26,0 C 0,0 C 51 % 41 % 0 % 1014,4 hPa 0,0 l/m 0,0 km/h (0 Bft) N 0 0 min 0,0 UV-I 16,2 C 26,0 C 0,0 km/h (0 Bft)
01.07.2010 20:10 27,2 C 21,8 C 29,5 C 26,8 C 26,0 C 0,0 C 51 % 41 % 0 % 1014,4 hPa 0,0 l/m 0,0 km/h (0 Bft) N-NO 22 0 min 0,0 UV-I 16,2 C 26,0 C 0,0 km/h (0 Bft)
01.07.2010 20:15 27,2 C 21,8 C 29,5 C 26,8 C 25,9 C 0,0 C 52 % 41 % 0 % 1014,4 hPa 0,0 l/m 0,0 km/h (0 Bft) W 270 0 min 0,0 UV-I 16,5 C 25,9 C 0,0 km/h (0 Bft)
01.07.2010 20:20 27,0 C 21,8 C 29,5 C 26,5 C 25,5 C 0,0 C 54 % 41 % 0 % 1014,8 hPa 0,0 l/m 0,0 km/h (0 Bft) W 270 0 min 0,0 UV-I 16,9 C 25,5 C 0,0 km/h (0 Bft)
01.07.2010 20:25 27,1 C 21,8 C 25,2 C 26,5 C 25,3 C 0,0 C 54 % 61 % 0 % 1014,8 hPa 0,0 l/m 0,2 km/h (0 Bft) W 270 0 min 0,0 UV-I 17,0 C 25,3 C 1,9 km/h (1 Bft)
01.07.2010 20:30 26,9 C 21,8 C 25,2 C 26,3 C 25,0 C 0,0 C 55 % 61 % 0 % 1014,8 hPa 0,0 l/m 0,5 km/h (0 Bft) W-SW 247 0 min 0,0 UV-I 17,1 C 25,0 C 0,0 km/h (0 Bft)
01.07.2010 20:35 26,9 C 21,8 C 25,2 C 26,2 C 24,8 C 0,0 C 56 % 61 % 0 % 1014,8 hPa 0,0 l/m 0,3 km/h (0 Bft) W-SW 247 0 min 0,0 UV-I 17,4 C 24,8 C 0,0 km/h (0 Bft)
01.07.2010 20:40 26,5 C 21,8 C 25,2 C 25,9 C 24,6 C 0,0 C 57 % 61 % 0 % 1014,6 hPa 0,0 l/m 0,0 km/h (0 Bft) W-SW 247 0 min 0,0 UV-I 17,3 C 24,6 C 0,0 km/h (0 Bft)
01.07.2010 20:45 26,5 C 21,8 C 25,2 C 25,8 C 24,4 C 0,0 C 57 % 61 % 0 % 1014,6 hPa 0,0 l/m 0,0 km/h (0 Bft) W-SW 247 0 min 0,0 UV-I 17,3 C 24,4 C 0,0 km/h (0 Bft)
01.07.2010 20:50 26,3 C 21,8 C 24,3 C 25,6 C 24,2 C 0,0 C 59 % 66 % 0 % 1014,6 hPa 0,0 l/m 0,0 km/h (0 Bft) W-SW 247 0 min 0,0 UV-I 17,6 C 24,2 C 0,0 km/h (0 Bft)
01.07.2010 20:55 26,2 C 21,8 C 24,3 C 25,4 C 23,9 C 0,0 C 58 % 66 % 0 % 1014,6 hPa 0,0 l/m 0,2 km/h (0 Bft) W-SW 247 0 min 0,0 UV-I 17,3 C 23,9 C 0,0 km/h (0 Bft)
01.07.2010 21:00 26,0 C 21,8 C 24,3 C 25,2 C 23,5 C 0,0 C 58 % 66 % 0 % 1014,6 hPa 0,0 l/m 0,2 km/h (0 Bft) W-SW 247 0 min 0,0 UV-I 17,1 C 23,5 C 0,0 km/h (0 Bft)
01.07.2010 21:07 25,6 C 21,8 C 23,8 C 24,6 C 22,7 C 0,0 C 60 % 66 % 0 % 1014,6 hPa 0,0 l/m 0,0 km/h (0 Bft) N 0 0 min 0,0 UV-I 17,2 C 22,7 C 0,0 km/h (0 Bft)
01.07.2010 21:10 25,6 C 21,8 C 23,8 C 24,6 C 22,7 C 0,0 C 60 % 66 % 0 % 1014,6 hPa 0,0 l/m 0,0 km/h (0 Bft) W-SW 247 0 min 0,0 UV-I 17,2 C 22,7 C 0,0 km/h (0 Bft)
01.07.2010 21:15 25,5 C 21,8 C 23,8 C 24,5 C 22,4 C 0,0 C 61 % 66 % 0 % 1014,6 hPa 0,0 l/m 0,0 km/h (0 Bft) W-SW 247 0 min 0,0 UV-I 17,4 C 22,4 C 0,0 km/h (0 Bft)
01.07.2010 21:20 25,4 C 21,8 C 23,8 C 24,3 C 22,0 C 0,0 C 62 % 66 % 0 % 1014,7 hPa 0,0 l/m 0,0 km/h (0 Bft) W-SW 247 0 min 0,0 UV-I 17,6 C 22,0 C 0,0 km/h (0 Bft)
01.07.2010 21:25 25,1 C 21,8 C 23,8 C 24,0 C 21,7 C 0,0 C 63 % 66 % 0 % 1014,7 hPa 0,0 l/m 0,0 km/h (0 Bft) W-SW 247 0 min 0,0 UV-I 17,5 C 21,7 C 0,0 km/h (0 Bft)
01.07.2010 21:30 24,9 C 21,9 C 23,8 C 23,7 C 21,4 C 0,0 C 64 % 66 % 0 % 1014,7 hPa 0,0 l/m 0,0 km/h (0 Bft) W-SW 247 0 min 0,0 UV-I 17,6 C 21,4 C 0,0 km/h (0 Bft)
01.07.2010 21:35 24,8 C 21,9 C 23,8 C 23,6 C 21,2 C 0,0 C 65 % 66 % 0 % 1014,7 hPa 0,0 l/m 0,0 km/h (0 Bft) W-SW 247 0 min 0,0 UV-I 17,8 C 21,2 C 0,0 km/h (0 Bft)
01.07.2010 21:40 24,6 C 21,9 C 23,8 C 23,4 C 21,0 C 0,0 C 66 % 66 % 0 % 1014,9 hPa 0,0 l/m 0,0 km/h (0 Bft) W-SW 247 0 min 0,0 UV-I 17,8 C 21,0 C 0,0 km/h (0 Bft)
01.07.2010 21:45 24,7 C 21,9 C 23,8 C 23,4 C 20,8 C 0,0 C 66 % 66 % 0 % 1014,9 hPa 0,0 l/m 0,0 km/h (0 Bft) W-SW 247 0 min 0,0 UV-I 17,9 C 20,8 C 0,0 km/h (0 Bft)
01.07.2010 21:50 24,3 C 21,9 C 23,8 C 23,1 C 20,7 C 0,0 C 67 % 66 % 0 % 1014,9 hPa 0,0 l/m 0,0 km/h (0 Bft) W-SW 247 0 min 0,0 UV-I 17,8 C 20,7 C 0,0 km/h (0 Bft)
01.07.2010 21:55 24,1 C 21,9 C 23,8 C 22,9 C 20,6 C 0,0 C 67 % 66 % 0 % 1014,9 hPa 0,0 l/m 0,0 km/h (0 Bft) W-SW 247 0 min 0,0 UV-I 17,6 C 20,6 C 0,0 km/h (0 Bft)
01.07.2010 22:00 24,1 C 21,9 C 23,8 C 22,9 C 20,4 C 0,0 C 68 % 66 % 0 % 1015,0 hPa 0,0 l/m 0,0 km/h (0 Bft) SW 225 0 min 0,0 UV-I 17,8 C 20,4 C 0,0 km/h (0 Bft)
01.07.2010 22:07 24,1 C 21,9 C 22,0 C 22,8 C 20,2 C 0,0 C 68 % 75 % 0 % 1015,0 hPa 0,0 l/m 0,2 km/h (0 Bft) N 0 0 min 0,0 UV-I 17,8 C 20,2 C 0,0 km/h (0 Bft)
01.07.2010 22:10 24,1 C 21,9 C 22,0 C 22,8 C 20,2 C 0,0 C 68 % 75 % 0 % 1015,0 hPa 0,0 l/m 0,2 km/h (0 Bft) SW 225 0 min 0,0 UV-I 17,8 C 20,2 C 0,0 km/h (0 Bft)
01.07.2010 22:15 23,8 C 21,9 C 22,0 C 22,6 C 20,1 C 0,0 C 67 % 75 % 0 % 1015,0 hPa 0,0 l/m 0,2 km/h (0 Bft) SW 225 0 min 0,0 UV-I 17,3 C 20,1 C 0,0 km/h (0 Bft)
01.07.2010 22:20 23,6 C 21,9 C 22,0 C 22,3 C 19,8 C 0,0 C 68 % 75 % 0 % 1015,2 hPa 0,0 l/m 0,2 km/h (0 Bft) SW 225 0 min 0,0 UV-I 17,3 C 19,8 C 1,9 km/h (1 Bft)
01.07.2010 22:25 23,6 C 21,9 C 22,0 C 22,3 C 19,8 C 0,0 C 68 % 75 % 0 % 1015,2 hPa 0,0 l/m 0,2 km/h (0 Bft) SW 225 0 min 0,0 UV-I 17,3 C 19,8 C 0,0 km/h (0 Bft)
01.07.2010 22:30 23,5 C 21,9 C 22,0 C 22,2 C 19,6 C 0,0 C 69 % 75 % 0 % 1015,2 hPa 0,0 l/m 0,2 km/h (0 Bft) SW 225 0 min 0,0 UV-I 17,5 C 19,6 C 0,0 km/h (0 Bft)
01.07.2010 22:35 23,5 C 21,9 C 22,0 C 22,2 C 19,5 C 0,0 C 69 % 75 % 0 % 1015,2 hPa 0,0 l/m 0,0 km/h (0 Bft) SW 225 0 min 0,0 UV-I 17,5 C 19,5 C 0,0 km/h (0 Bft)
01.07.2010 22:40 23,2 C 21,9 C 22,0 C 21,9 C 19,3 C 0,0 C 69 % 75 % 0 % 1015,3 hPa 0,0 l/m 0,0 km/h (0 Bft) W-SW 247 0 min 0,0 UV-I 17,2 C 19,3 C 0,0 km/h (0 Bft)
01.07.2010 22:45 23,2 C 21,9 C 22,0 C 21,8 C 19,1 C 0,0 C 70 % 75 % 0 % 1015,3 hPa 0,0 l/m 0,0 km/h (0 Bft) W-SW 247 0 min 0,0 UV-I 17,4 C 19,1 C 0,0 km/h (0 Bft)
01.07.2010 22:50 23,1 C 21,9 C 22,0 C 21,7 C 18,9 C 0,0 C 71 % 75 % 0 % 1015,3 hPa 0,0 l/m 0,0 km/h (0 Bft) W-SW 247 0 min 0,0 UV-I 17,5 C 18,9 C 0,0 km/h (0 Bft)
01.07.2010 22:55 22,8 C 21,9 C 22,0 C 21,5 C 18,8 C 0,0 C 70 % 75 % 0 % 1015,3 hPa 0,0 l/m 0,0 km/h (0 Bft) W-SW 247 0 min 0,0 UV-I 17,0 C 18,8 C 0,0 km/h (0 Bft)
01.07.2010 23:00 22,7 C 22,0 C 22,0 C 21,3 C 18,5 C 0,0 C 71 % 75 % 0 % 1015,2 hPa 0,0 l/m 0,0 km/h (0 Bft) W-SW 247 0 min 0,0 UV-I 17,2 C 18,5 C 0,0 km/h (0 Bft)
01.07.2010 23:10 22,5 C 22,0 C 20,4 C 21,1 C 18,2 C 0,0 C 71 % 79 % 0 % 1015,2 hPa 0,0 l/m 0,0 km/h (0 Bft) W-SW 247 0 min 0,0 UV-I 17,0 C 18,2 C 0,0 km/h (0 Bft)
01.07.2010 23:15 22,4 C 21,9 C 20,4 C 21,0 C 18,1 C 0,0 C 72 % 79 % 0 % 1015,2 hPa 0,0 l/m 0,0 km/h (0 Bft) W-SW 247 0 min 0,0 UV-I 17,1 C 18,1 C 0,0 km/h (0 Bft)
01.07.2010 23:20 22,4 C 21,9 C 20,1 C 20,9 C 18,0 C 0,0 C 72 % 79 % 0 % 1015,1 hPa 0,0 l/m 0,0 km/h (0 Bft) W-SW 247 0 min 0,0 UV-I 17,1 C 18,0 C 0,0 km/h (0 Bft)
01.07.2010 23:25 22,2 C 22,0 C 20,1 C 20,8 C 17,9 C 0,0 C 72 % 79 % 0 % 1015,1 hPa 0,0 l/m 0,0 km/h (0 Bft) W-SW 247 0 min 0,0 UV-I 16,9 C 17,9 C 0,0 km/h (0 Bft)
01.07.2010 23:30 21,9 C 22,0 C 19,6 C 20,5 C 17,8 C 0,0 C 73 % 81 % 0 % 1015,1 hPa 0,0 l/m 0,0 km/h (0 Bft) W-SW 247 0 min 0,0 UV-I 16,8 C 17,8 C 0,0 km/h (0 Bft)
01.07.2010 23:35 21,7 C 22,0 C 19,6 C 20,4 C 17,7 C 0,0 C 73 % 81 % 0 % 1015,1 hPa 0,0 l/m 0,0 km/h (0 Bft) W-SW 247 0 min 0,0 UV-I 16,6 C 17,7 C 0,0 km/h (0 Bft)
01.07.2010 23:40 21,6 C 22,0 C 19,5 C 20,2 C 17,5 C 0,0 C 73 % 81 % 0 % 1015,4 hPa 0,0 l/m 0,0 km/h (0 Bft) W-SW 247 0 min 0,0 UV-I 16,5 C 17,5 C 0,0 km/h (0 Bft)
01.07.2010 23:45 21,6 C 21,9 C 19,5 C 20,2 C 17,4 C 0,0 C 73 % 81 % 0 % 1015,4 hPa 0,0 l/m 0,0 km/h (0 Bft) W-SW 247 0 min 0,0 UV-I 16,5 C 17,4 C 0,0 km/h (0 Bft)
01.07.2010 23:50 21,5 C 21,9 C 19,5 C 20,1 C 17,3 C 0,0 C 73 % 81 % 0 % 1015,4 hPa 0,0 l/m 0,0 km/h (0 Bft) W-SW 247 0 min 0,0 UV-I 16,4 C 17,3 C 0,0 km/h (0 Bft)
01.07.2010 23:55 21,5 C 21,9 C 19,5 C 20,1 C 17,2 C 0,0 C 73 % 81 % 0 % 1015,4 hPa 0,0 l/m 0,0 km/h (0 Bft) W-SW 247 0 min 0,0 UV-I 16,4 C 17,2 C 0,0 km/h (0 Bft)
_ Min-Zeit 05:30 09:40 06:20 05:25 05:06 00:00 15:25 17:15 00:00 20:00 - 00:00 - - - 00:00 05:25 05:06 00:00
Minimum _ 16,3 C 20,1 C 14,5 C 15,2 C 12,8 C 0,0 C 42 % 41 % 0 % 1014,4 hPa - 0,0 km/h (0 Bft) - - - 0,0 UV-I 12,7 C 12,8 C 0,0 km/h (0 Bft)
_ Max-Zeit 17:20 00:45 17:15 13:10 13:10 11:45 05:50 05:20 07:30 08:40 00:00 09:20 - - 08:10 13:30 21:45 13:10 09:20
Maximum _ 29,3 C 22,0 C 29,5 C 33,3 C 33,3 C 6,4 C 81 % 87 % 100 % 1017,0 hPa 0,0 l/m 7,6 km/h
NO (2 Bft)
- - 10 min 4,2 UV-I 17,9 C 33,3 C 14,3 km/h
NO (3 Bft)
Durchschnitt _ 23,2 C 21,1 C 19,1 C 24,5 C 23,4 C 1,9 C 63 % 75 % 43 % 1015,8 hPa #0,0 l/m 1,4 km/h (1 Bft) O-NO - #7:55 h 1,8 UV-I 15,3 C 23,4 C 1,9 km/h (1 Bft)
2010 www.wetterstation-wechselburg.de